Regional Weather Roundup
Issued by NWS

Home | Current Version | Previous Version | Graphics & Text | Print | Product List | Glossary On
Versions: 1 2 3 4 5 6 7 8 9 10 11 12 13 14 15 16 17 18 19 20 21 22 23 24 25 26 27 28 29 30 31 32 33 34 35 36 37 38 39 40 41 42 43 44 45 46 47 48 49 50
000
ASUS45 KTFX 161319
RWRMT
MONTANA HOURLY WEATHER ROUNDUP
NATIONAL WEATHER SERVICE GREAT FALLS MT
719 AM MDT WED APR 16 2014

NOTE: "FAIR" INDICATES FEW OR NO CLOUDS BELOW 12000 FEET WITH NO
SIGNIFICANT WEATHER AND/OR OBSTRUCTIONS TO VISIBILITY.

* THESE STATIONS ARE NOT UNDER NWS QUALITY CONTROL. THEY DO NOT
   REPORT WEATHER SUCH AS PRECIPITATION OR FOG.

MTZ001>007-043-161400-
WEST OF THE DIVIDE
CITY           SKY/WX    TMP DP  RH WIND       PRES   REMARKS
KALISPELL      FOG       28  27  96 CALM      29.96R VSB M1/4
MISSOULA       FOG       28  28 100 CALM      30.01R VSB 2 1/2
BUTTE          MOCLDY    28  19  69 NW3       29.96S
MULLAN PASS    MOCLDY    25  21  85 SW7       29.92S WCI  17
* ESSEX        N/A       31  31 100 N/A        N/A
* LINCOLN      N/A       32  28  85 S2         N/A
* LOOKOUT PASS N/A       29  27  92 N/A        N/A
* PLAINS APT   MOCLDY    30  25  82 N/A       30.00R VSB M1/4
* POLSON       N/A       33  28  82 SE1        N/A
* SEELEY LAKE  N/A       25  23  92 N1         N/A
* THOMP F APT  MOCLDY    27  13  55 N2G13      N/A
* YAAK HILL    N/A       28  26  92 N/A        N/A
$$

MTZ008-052>055-161400-
SOUTHWEST MONTANA
CITY           SKY/WX    TMP DP  RH WIND       PRES   REMARKS
BOZEMAN        CLOUDY    32  27  82 CALM      29.98R
DILLON         MOCLDY    28  18  66 S14       29.97S WCI  17
W YELLOWSTONE  N/A       16  14  92 N/A        N/A
* THREE FORKS  MOCLDY    34  23  64 N/A        N/A
* BOULDER HILL N/A       30  18  61 S4         N/A
* MONIDA PASS  N/A       20  12  71 W1         N/A
* RAYNOLDS PAS N/A       23  22  96 VRB3       N/A
* WHITEHALL    N/A       34  18  52 SW8        N/A   WCI  27
* WISE RIVER   N/A       29  19  66 SW2        N/A
$$

MTZ009>010-012-014-046-048-049-054-161400-
EAST SLOPES AND CENTRAL MONTANA
CITY           SKY/WX    TMP DP  RH WIND       PRES   REMARKS
CUT BANK       LGT SNOW  30  30 100 S3        29.94R VSB M1/4
GREAT FALLS    CLOUDY    30  30 100 E7        29.94R WCI  23
HELENA         CLEAR     36  25  64 W8        29.95R WCI  30
MALMSTROM AFB  CLOUDY    30  30 100 CALM      29.93R
* CONRAD       MOCLDY    32  32 100 N/A        N/A
* DEARBORN     N/A       28  28 100 N/A        N/A
* EAST GLACIER N/A       28  26  92 NE6        N/A   WCI  21
* MONARCH      N/A       26  22  85 W4         N/A
* PENDROY      N/A       30  30 100 SW8        N/A   WCI  22
* ROGERS PASS  N/A       29  25  85 E2G15      N/A
* SAINT MARY   N/A       29  28  96 NE4G9      N/A
* SWEET GRASS  N/A       32  32 100 N/A        N/A
* WHITE SULPH  N/A       29  23  78 E3         N/A
$$

MTZ011-013-016-021-035-040-045-047-050-051-161400-
NORTH CENTRAL MONTANA
CITY           SKY/WX    TMP DP  RH WIND       PRES   REMARKS
HAVRE          FOG       30  30 100 NW3       29.99R
LEWISTOWN      LGT SNOW  28  28 100 W6        29.93R WCI  21
* CHINOOK      CLOUDY    28  21  75 CALM      30.01R
* FORT BENTON  MOCLDY    32  30  92 CALM      29.99R
* CHESTER      N/A       31  29  92 N/A        N/A
* DENTON       N/A       30  29  96 NW6        N/A   WCI  24
* GEYSER       N/A       29  28  96 NE7        N/A   WCI  22
* JUDITH GAP   N/A       30  30 100 NW12       N/A   WCI  20
* LOMA         N/A       32  32 100 S1         N/A
$$

MTZ017>020-022>027-061-062-161400-
NORTHEAST MONTANA
CITY           SKY/WX    TMP DP  RH WIND       PRES   REMARKS
GLASGOW        MOCLDY    27  21  78 CALM      30.01R
GLENDIVE       MOCLDY    27  18  69 NE10      29.96R WCI  18
JORDAN         MOCLDY    27  19  72 N13       29.96R WCI  16
SIDNEY         CLOUDY    28  21  75 NE12      30.01R WCI  18
WOLF POINT     CLOUDY    28  21  75 E12       30.01R WCI  18
* BEAVER HILL  N/A       21  18  88 NE8        N/A   WCI  11
* CIRCLE       N/A       23  20  88 N10        N/A   WCI  13
* LINDSAY DVD  N/A       20  18  92 N6         N/A   WCI  12
* NAVAJO       N/A       23  18  81 E11        N/A   WCI  12
* SACO         N/A       20  16  84 NE1        N/A
$$

MTZ028>042-056>058-161400-
SOUTHCENTRAL AND SOUTHEAST MONTANA
CITY           SKY/WX    TMP DP  RH WIND       PRES   REMARKS
BAKER          PTCLDY    25  19  78 NE12      29.88R WCI  14
BILLINGS       CLOUDY    37  30  76 W12       29.93R WCI  29
LIVINGSTON     CLOUDY    37  25  62 SW16      29.94R WCI  28
MILES CITY     MOCLDY    28  21  75 N13       29.92R WCI  17
* LAUREL APT   MOCLDY    39  25  57 W14G20     N/A   WCI  31
* ROUNDUP APT  MOCLDY    36  28  73 N/A        N/A
* HYSHAM       N/A       34  20  57 VRB2       N/A
* LAME DEER    N/A       32  24  72 NW8G15     N/A   WCI  25
* REED POINT   N/A       37  26  64 SW4        N/A
* ROSCOE HILL  N/A       34  11  38 W6G14      N/A   WCI  29
$$

REGIONAL REPORTS...DAKOTAS
CITY           SKY/WX    TMP DP  RH WIND       PRES   REMARKS
WILLISTON      CLOUDY    25  19  78 E17       30.01R WCI  12
DICKINSON      MOCLDY    23  19  85 NE14      29.90R WCI  10
CROSBY         CLOUDY    23  21  92 E16       30.08R WCI  10
TIOGA          CLOUDY    23  23 100 E16G25    30.03R WCI  10
WATFORD CITY   CLOUDY    25  19  78 E14       29.99R WCI  13
BISMARCK       CLOUDY    28  21  75 E18G28    29.94R WCI  15
GRAND FORKS    CLOUDY    28  12  51 E14       30.05R WCI  17
FARGO          CLOUDY    28  21  75 NE14      30.00R WCI  17
BUFFALO SD     CLOUDY    27  18  69 NE18      29.77R WCI  14
RAPID CITY     CLOUDY    41  36  82 NW18      29.74R
$$

REGIONAL REPORTS...WYOMING/IDAHO/WASHINGTON
CITY           SKY/WX    TMP DP  RH WIND       PRES   REMARKS
GILLETTE       MOCLDY    34  30  85 NW17      29.86R WCI  23
SHERIDAN       CLOUDY    36  32  85 W14       29.91R WCI  27
CODY           PTCLDY    34  25  70 NE5       29.93R WCI  29
YELLOWSTONE LA MOCLDY    16  12  84 NW3       29.98R
SALMON         MOCLDY    27  18  69 CALM      30.03R
MULLAN PASS    MOCLDY    25  21  85 SW7       29.92S WCI  17
SAND POINT     MOCLDY    32  32 100 CALM      29.98S
SPOKANE        CLOUDY    39  27  62 S9        29.98R WCI  33
$$

REGIONAL REPORTS...ALBERTA
CITY           SKY/WX    TMP DP  RH WIND       PRES   REMARKS
CALGARY        LGT SNOW  25  21  85 NW6       30.00R VSB 1 1/2 WCI  18
LETHBRIDGE     LGT SNOW  27  27 100 N7        30.00R WCI  19
MEDICINE HAT   CLOUDY    30  28  92 N8        30.02R WCI  22
EDMONTON       MOCLDY    23  21  92 N5        30.08R WCI  16
WATERTON GATE  N/A       30  28  92 N7         N/A   WCI  23
CARDSTON       N/A       28  28 100 N5         N/A   WCI  22
MILK RIVER     N/A       28  28 100 N13        N/A   WCI  17
$$

REGIONAL REPORTS...SASKATCHEWAN
CITY           SKY/WX    TMP DP  RH WIND       PRES   REMARKS
SWIFT CURRENT  LGT SNOW  25  23  92 E8        30.01R WCI  16
MOOSE JAW      LGT SNOW  23  18  81 E12       30.11R VSB 2 1/2 WCI  11
REGINA         LGT SNOW  21  18  88 E14       30.13R WCI   8
VAL MARIE      N/A       21  18  88 NE2        N/A
ASSINIBOIA     N/A       23  21  92 E13        N/A   WCI  11

$$




USA.gov is the U.S. government's official web portal to all federal, state and local government web resources and services.